Weather History for KNID - October, 2012

Change the Weather History Date:

Wednesday, October 10, 2012

  Actual Average Record
Temperature  
Mean Temperature 64 °F -  
Max Temperature 77 °F 83 °F 93 °F (1996)
Min Temperature 52 °F 53 °F 43 °F (2013)
Growing Degree Days 14 (Base 50)    
Moisture  
Dew Point 36 °F    
Average Humidity 36    
Maximum Humidity 54    
Minimum Humidity 15    
Precipitation  
Precipitation 0.00 in - - ()
Sea Level Pressure  
Sea Level Pressure 29.87 in    
Wind  
Wind Speed 7 mph (South)    
Max Wind Speed 14 mph    
Max Gust Speed 17 mph    
Visibility 10 miles    
Events      
Averages and records for this station are not official NWS values.
T = Trace of Precipitation, MM = Missing Value Source: NWS Daily Summary

Daily Weather History Graph

Daily Weather History Graph

Search for Another Location

Airport or City:

Trip Planner

Search our weather history database for the weather conditions in past years. The results will help you decide how hot, cold, wet, or windy it might be!

Date:

Astronomy

Oct. 10, 2012 Rise Set
Actual Time 6:53 AM PDT 6:21 PM PDT
Civil Twilight 6:27 AM PDT 6:46 PM PDT
Nautical Twilight 5:58 AM PDT 7:16 PM PDT
Astronomical Twilight 5:28 AM PDT 7:45 PM PDT
Moon 1:44 AM PDT (10/10) 3:17 PM PDT (10/10)
Length of Visible Light 12h 18m
Length of Day
11h 27m
Waning Crescent, 26% of the Moon is Illuminated
Oct 10
Waning Crescent
Oct 15
New
Oct 21
First Quarter
Oct 29
Full
Nov 6
Last Quarter

Hourly Weather History & Observations

Time (PDT) Temp. Dew Point Humidity Pressure Visibility Wind Dir Wind Speed Gust Speed Precip Events Conditions
12:56 AM 61.0 °F 39.9 °F 46% 29.89 in 10.0 mi SSW 8.1 mph - N/A   Clear
1:56 AM 61.0 °F 41.0 °F 48% 29.89 in 10.0 mi South 12.7 mph - N/A   Scattered Clouds
2:56 AM 60.1 °F 37.0 °F 42% 29.90 in 10.0 mi South 5.8 mph - N/A   Mostly Cloudy
3:56 AM 59.0 °F 37.0 °F 44% 29.89 in 10.0 mi SSE 9.2 mph - N/A   Partly Cloudy
4:56 AM 59.0 °F 39.9 °F 49% 29.89 in 10.0 mi South 9.2 mph - N/A   Clear
5:56 AM 55.9 °F 37.0 °F 49% 29.91 in 10.0 mi SSW 5.8 mph - N/A   Scattered Clouds
6:56 AM 52.0 °F 36.0 °F 54% 29.93 in 10.0 mi Calm Calm - N/A   Scattered Clouds
7:56 AM 55.9 °F 36.0 °F 47% 29.93 in 10.0 mi SSW 5.8 mph - N/A   Partly Cloudy
8:56 AM 62.1 °F 37.9 °F 41% 29.94 in 10.0 mi SSW 6.9 mph - N/A   Partly Cloudy
9:56 AM 64.9 °F 37.0 °F 36% 29.94 in 10.0 mi Calm Calm - N/A   Partly Cloudy
10:56 AM 70.0 °F 34.0 °F 27% 29.92 in 10.0 mi Calm Calm - N/A   Partly Cloudy
11:56 AM 71.1 °F 30.9 °F 23% 29.90 in 10.0 mi Calm Calm - N/A   Partly Cloudy
12:56 PM 75.0 °F 30.0 °F 19% 29.87 in 10.0 mi East 4.6 mph - N/A   Partly Cloudy
1:56 PM 75.9 °F 24.1 °F 15% 29.83 in 10.0 mi SSE 6.9 mph - N/A   Scattered Clouds
2:56 PM 75.9 °F 32.0 °F 20% 29.81 in 10.0 mi Variable 3.5 mph - N/A   Scattered Clouds
3:56 PM 77.0 °F 33.1 °F 20% 29.80 in 10.0 mi South 11.5 mph 17.3 mph N/A   Scattered Clouds
4:56 PM 75.0 °F 30.9 °F 20% 29.80 in 10.0 mi South 13.8 mph - N/A   Partly Cloudy
5:56 PM 73.0 °F 34.0 °F 24% 29.81 in 10.0 mi South 10.4 mph - N/A   Partly Cloudy
6:56 PM 68.0 °F 35.1 °F 30% 29.82 in 10.0 mi SSW 9.2 mph - N/A   Partly Cloudy
7:56 PM 66.0 °F 37.0 °F 34% 29.83 in 10.0 mi South 6.9 mph - N/A   Clear
8:56 PM 64.0 °F 39.0 °F 40% 29.83 in 10.0 mi South 11.5 mph - N/A   Clear
9:56 PM 62.1 °F 39.0 °F 43% 29.83 in 10.0 mi South 6.9 mph - N/A   Clear
10:56 PM 61.0 °F 39.9 °F 46% 29.84 in 10.0 mi Variable 3.5 mph - N/A   Clear
11:56 PM 60.1 °F 39.0 °F 46% 29.84 in 10.0 mi South 6.9 mph - N/A   Clear